| time (UTC) | temp F | wind direction | speed MPH | gust MPH | rain 1hr in | rain 24hr in | rain mn in | humidity % | barometer mb |
| 20260510072504 | 43 | 23 | 1.0 | 5.0 | 0.02 | 0.03 | 0.03 | 90 | 1008.4 |
| 20260510072004 | 43 | 34 | 1.0 | 5.0 | 0.01 | 0.02 | 0.02 | 91 | 1008.5 |
| 20260510071504 | 43 | 16 | 0.0 | 3.0 | 0.01 | 0.02 | 0.02 | 91 | 1008.5 |
| 20260510070505 | 43 | 74 | 1.0 | 3.0 | 0.01 | 0.02 | 0.02 | 91 | 1008.5 |
| 20260510070005 | 43 | 22 | 1.0 | 3.0 | 0.01 | 0.02 | 0.02 | 91 | 1008.5 |
| 20260510065504 | 43 | 26 | 1.0 | 3.0 | 0.01 | 0.02 | 0.02 | 91 | 1008.5 |
| 20260510065005 | 43 | 17 | 2.0 | 5.0 | 0.01 | 0.02 | 0.02 | 91 | 1008.5 |
| 20260510064505 | 43 | 64 | 2.0 | 5.0 | 0.01 | 0.02 | 0.02 | 91 | 1008.5 |
| 20260510064004 | 43 | 17 | 0.0 | 2.0 | 0.01 | 0.02 | 0.02 | 91 | 1008.7 |
| 20260510063504 | 43 | 17 | 1.0 | 2.0 | 0.01 | 0.02 | 0.02 | 91 | 1008.7 |
| 20260510063004 | 43 | 17 | 1.0 | 3.0 | 0.00 | 0.02 | 0.02 | 91 | 1008.8 |
| 20260510062504 | 43 | 20 | 0.0 | 3.0 | 0.00 | 0.02 | 0.02 | 91 | 1008.7 |
| 20260510062004 | 43 | 19 | 2.0 | 3.0 | 0.00 | 0.02 | 0.02 | 91 | 1008.8 |
| 20260510061004 | 43 | 5 | 2.0 | 3.0 | 0.00 | 0.02 | 0.02 | 92 | 1008.8 |
| 20260510060504 | 43 | 5 | 0.0 | 3.0 | 0.01 | 0.02 | 0.02 | 92 | 1008.9 |
| 20260510055504 | 43 | 5 | 0.0 | 0.0 | 0.01 | 0.02 | 0.02 | 92 | 1008.9 |
| 20260510055005 | 43 | 5 | 0.0 | 2.0 | 0.01 | 0.02 | 0.02 | 92 | 1008.9 |
| 20260510054504 | 43 | 5 | 0.0 | 2.0 | 0.01 | 0.02 | 0.02 | 92 | 1009.0 |
| 20260510054005 | 43 | 5 | 0.0 | 1.0 | 0.01 | 0.02 | 0.02 | 92 | 1009.0 |
| 20260510053505 | 43 | 5 | 0.0 | 3.0 | 0.02 | 0.02 | 0.02 | 92 | 1009.0 |
| 20260510052504 | 42 | 5 | 1.0 | 3.0 | 0.02 | 0.02 | 0.02 | 91 | 1009.1 |
| 20260510052004 | 42 | 9 | 1.0 | 2.0 | 0.02 | 0.02 | 0.02 | 91 | 1009.1 |
| 20260510051004 | 42 | 68 | 0.0 | 3.0 | 0.02 | 0.02 | 0.02 | 90 | 1009.1 |
| 20260510050504 | 42 | 102 | 1.0 | 3.0 | 0.01 | 0.01 | 0.01 | 90 | 1009.1 |
| 20260510050005 | 42 | 103 | 1.0 | 3.0 | 0.01 | 0.01 | 0.01 | 90 | 1009.3 |
| 20260510045504 | 41 | 103 | 2.0 | 3.0 | 0.01 | 0.01 | 0.01 | 89 | 1009.3 |
| 20260510045004 | 41 | 168 | 0.0 | 1.0 | 0.01 | 0.01 | 0.01 | 89 | 1009.3 |
| 20260510044504 | 41 | 168 | 0.0 | 1.0 | 0.01 | 0.01 | 0.01 | 89 | 1009.4 |
| 20260510044004 | 41 | 169 | 0.0 | 2.0 | 0.01 | 0.01 | 0.01 | 89 | 1009.4 |
| 20260510043504 | 41 | 171 | 1.0 | 2.0 | 0.00 | 0.00 | 0.00 | 88 | 1009.4 |
| 20260510043006 | 41 | 169 | 0.0 | 0.0 | 0.00 | 0.00 | 0.00 | 87 | 1009.4 |
| 20260510042504 | 41 | 167 | 0.0 | 0.0 | 0.00 | 0.00 | 0.00 | 87 | 1009.5 |
| 20260510042005 | 41 | 169 | 0.0 | 0.0 | 0.00 | 0.00 | 0.00 | 87 | 1009.5 |
| 20260510041004 | 41 | 168 | 0.0 | 0.0 | 0.00 | 0.00 | 0.00 | 86 | 1009.8 |
| 20260510040504 | 41 | 168 | 0.0 | 0.0 | 0.00 | 0.00 | 0.00 | 85 | 1009.9 |
| 20260510040004 | 41 | 168 | 0.0 | 0.0 | 0.00 | 0.00 | 0.00 | 85 | 1009.9 |
| 20260510035504 | 41 | 169 | 0.0 | 0.0 | 0.00 | 0.00 | 0.00 | 84 | 1010.0 |
| 20260510035004 | 41 | 169 | 0.0 | 0.0 | 0.00 | 0.00 | 0.00 | 84 | 1010.1 |
| 20260510034504 | 41 | 171 | 0.0 | 1.0 | 0.00 | 0.00 | 0.00 | 84 | 1010.1 |
| 20260510034005 | 41 | 169 | 1.0 | 1.0 | 0.00 | 0.00 | 0.00 | 84 | 1010.2 |
| 20260510033504 | 41 | 171 | 0.0 | 0.0 | 0.00 | 0.00 | 0.00 | 84 | 1010.1 |
| 20260510033005 | 41 | 169 | 0.0 | 0.0 | 0.00 | 0.00 | 0.00 | 83 | 1010.1 |
| 20260510032504 | 41 | 170 | 0.0 | 0.0 | 0.00 | 0.00 | 0.00 | 83 | 1010.1 |
| 20260510032004 | 41 | 171 | 0.0 | 0.0 | 0.00 | 0.00 | 0.00 | 83 | 1010.1 |
| 20260510031505 | 41 | 167 | 0.0 | 0.0 | 0.00 | 0.00 | 0.00 | 83 | 1010.2 |
| 20260510030504 | 41 | 171 | 0.0 | 0.0 | 0.00 | 0.00 | 0.00 | 83 | 1010.3 |
| 20260510030005 | 41 | 171 | 0.0 | 0.0 | 0.00 | 0.00 | 0.00 | 82 | 1010.3 |
| 20260510025504 | 41 | 168 | 0.0 | 0.0 | 0.00 | 0.00 | 0.00 | 82 | 1010.3 |
| 20260510025004 | 41 | 169 | 0.0 | 0.0 | 0.00 | 0.00 | 0.00 | 82 | 1010.4 |
| 20260510024004 | 41 | 169 | 0.0 | 0.0 | 0.00 | 0.00 | 0.00 | 81 | 1010.5 |
| 20260510023504 | 41 | 168 | 0.0 | 0.0 | 0.00 | 0.00 | 0.00 | 81 | 1010.6 |
| 20260510023005 | 41 | 169 | 0.0 | 0.0 | 0.00 | 0.00 | 0.00 | 81 | 1010.6 |
| 20260510022505 | 41 | 169 | 0.0 | 0.0 | 0.00 | 0.00 | 0.00 | 81 | 1010.7 |
| 20260510022004 | 41 | 168 | 0.0 | 0.0 | 0.00 | 0.00 | 0.00 | 81 | 1010.8 |
| 20260510021504 | 41 | 168 | 0.0 | 0.0 | 0.00 | 0.00 | 0.00 | 81 | 1010.9 |
| 20260510021005 | 41 | 170 | 0.0 | 2.0 | 0.00 | 0.00 | 0.00 | 81 | 1011.0 |
| 20260510020504 | 41 | 170 | 0.0 | 2.0 | 0.00 | 0.00 | 0.00 | 81 | 1011.0 |
| 20260510020005 | 41 | 169 | 1.0 | 2.0 | 0.00 | 0.00 | 0.00 | 80 | 1010.9 |
| 20260510015504 | 41 | 168 | 1.0 | 2.0 | 0.00 | 0.00 | 0.00 | 80 | 1010.9 |
| 20260510015004 | 41 | 170 | 1.0 | 2.0 | 0.00 | 0.00 | 0.00 | 79 | 1011.0 |
| 20260510014504 | 41 | 168 | 1.0 | 2.0 | 0.00 | 0.00 | 0.00 | 79 | 1011.1 |
| 20260510014004 | 41 | 170 | 0.0 | 1.0 | 0.00 | 0.00 | 0.00 | 79 | 1011.2 |
| 20260510013504 | 41 | 171 | 0.0 | 1.0 | 0.00 | 0.00 | 0.00 | 79 | 1011.3 |
| 20260510012504 | 41 | 170 | 0.0 | 2.0 | 0.00 | 0.00 | 0.00 | 79 | 1011.4 |
| 20260510012004 | 41 | 167 | 0.0 | 2.0 | 0.00 | 0.00 | 0.00 | 79 | 1011.5 |
| 20260510011004 | 41 | 170 | 1.0 | 2.0 | 0.00 | 0.00 | 0.00 | 81 | 1011.5 |
| 20260510010504 | 41 | 170 | 0.0 | 0.0 | 0.00 | 0.00 | 0.00 | 82 | 1011.6 |
| 20260510005005 | 41 | 170 | 1.0 | 3.0 | 0.00 | 0.00 | 0.00 | 81 | 1011.7 |
| 20260510004505 | 41 | 168 | 1.0 | 3.0 | 0.00 | 0.00 | 0.00 | 81 | 1011.8 |
| 20260510004005 | 41 | 167 | 2.0 | 3.0 | 0.00 | 0.00 | 0.00 | 81 | 1011.8 |
| 20260510003504 | 41 | 182 | 1.0 | 3.0 | 0.00 | 0.00 | 0.00 | 80 | 1011.7 |
| 20260510003005 | 41 | 184 | 0.0 | 1.0 | 0.00 | 0.00 | 0.00 | 80 | 1011.9 |
| 20260510002504 | 41 | 182 | 0.0 | 0.0 | 0.00 | 0.00 | 0.00 | 79 | 1011.9 |
| 20260510002004 | 41 | 181 | 0.0 | 2.0 | 0.00 | 0.00 | 0.00 | 78 | 1012.0 |
| 20260510001504 | 41 | 181 | 1.0 | 2.0 | 0.00 | 0.00 | 0.00 | 77 | 1012.0 |
| 20260510001005 | 41 | 181 | 1.0 | 2.0 | 0.00 | 0.00 | 0.00 | 76 | 1012.0 |
| 20260510000504 | 41 | 182 | 1.0 | 2.0 | 0.00 | 0.00 | 0.00 | 75 | 1012.1 |
| 20260509235504 | 42 | 182 | 1.0 | 2.0 | 0.00 | 0.00 | 0.00 | 74 | 1012.2 |
| 20260509235004 | 42 | 184 | 0.0 | 0.0 | 0.00 | 0.00 | 0.00 | 74 | 1012.3 |
| 20260509234004 | 43 | 183 | 0.0 | 3.0 | 0.00 | 0.00 | 0.00 | 76 | 1012.3 |
| 20260509233504 | 43 | 184 | 0.0 | 3.0 | 0.00 | 0.00 | 0.00 | 76 | 1012.3 |
| 20260509233006 | 43 | 182 | 1.0 | 5.0 | 0.00 | 0.00 | 0.00 | 76 | 1012.4 |
| 20260509232504 | 43 | 157 | 1.0 | 5.0 | 0.00 | 0.00 | 0.00 | 77 | 1012.4 |
| 20260509231505 | 43 | 169 | 2.0 | 7.0 | 0.00 | 0.00 | 0.00 | 76 | 1012.5 |
| 20260509231004 | 43 | 166 | 1.0 | 6.0 | 0.00 | 0.00 | 0.00 | 75 | 1012.5 |
| 20260509230504 | 43 | 169 | 3.0 | 6.0 | 0.00 | 0.00 | 0.00 | 75 | 1012.6 |
| 20260509230005 | 43 | 181 | 2.0 | 5.0 | 0.00 | 0.00 | 0.00 | 74 | 1012.7 |
| 20260509225504 | 43 | 179 | 1.0 | 6.0 | 0.00 | 0.00 | 0.00 | 73 | 1012.8 |
| 20260509225004 | 43 | 166 | 2.0 | 6.0 | 0.00 | 0.00 | 0.00 | 73 | 1012.8 |
| 20260509224504 | 43 | 169 | 3.0 | 6.0 | 0.00 | 0.00 | 0.00 | 73 | 1012.8 |
| 20260509224005 | 43 | 156 | 3.0 | 7.0 | 0.00 | 0.00 | 0.00 | 72 | 1012.8 |
| 20260509223504 | 43 | 166 | 4.0 | 7.0 | 0.00 | 0.00 | 0.00 | 72 | 1012.9 |
| 20260509223005 | 43 | 169 | 2.0 | 5.0 | 0.00 | 0.00 | 0.00 | 72 | 1012.9 |
| 20260509222504 | 43 | 162 | 3.0 | 5.0 | 0.00 | 0.00 | 0.00 | 71 | 1012.9 |
| 20260509222004 | 44 | 161 | 2.0 | 3.0 | 0.00 | 0.00 | 0.00 | 71 | 1013.0 |
| 20260509221504 | 44 | 175 | 1.0 | 3.0 | 0.00 | 0.00 | 0.00 | 69 | 1013.1 |
| 20260509221004 | 44 | 173 | 1.0 | 2.0 | 0.00 | 0.00 | 0.00 | 69 | 1013.2 |
| 20260509220504 | 44 | 176 | 1.0 | 2.0 | 0.00 | 0.00 | 0.00 | 68 | 1013.2 |
| 20260509220005 | 45 | 176 | 0.0 | 2.0 | 0.00 | 0.00 | 0.00 | 67 | 1013.3 |
| 20260509215504 | 45 | 170 | 1.0 | 2.0 | 0.00 | 0.00 | 0.00 | 67 | 1013.3 |
| 20260509214505 | 45 | 175 | 0.0 | 1.0 | 0.00 | 0.00 | 0.00 | 66 | 1013.4 |
| 20260509213504 | 45 | 175 | 0.0 | 2.0 | 0.00 | 0.00 | 0.00 | 66 | 1013.3 |
| 20260509212504 | 45 | 167 | 1.0 | 3.0 | 0.00 | 0.00 | 0.00 | 65 | 1013.4 |
| 20260509212004 | 46 | 172 | 1.0 | 3.0 | 0.00 | 0.00 | 0.00 | 65 | 1013.4 |
| 20260509211504 | 46 | 171 | 1.0 | 5.0 | 0.00 | 0.00 | 0.00 | 65 | 1013.4 |
| 20260509211004 | 46 | 154 | 2.0 | 6.0 | 0.00 | 0.00 | 0.00 | 64 | 1013.4 |
| 20260509210504 | 46 | 159 | 2.0 | 6.0 | 0.00 | 0.00 | 0.00 | 64 | 1013.4 |
| 20260509210005 | 46 | 173 | 2.0 | 3.0 | 0.00 | 0.00 | 0.00 | 62 | 1013.5 |
| 20260509205504 | 46 | 161 | 1.0 | 2.0 | 0.00 | 0.00 | 0.00 | 61 | 1013.6 |
| 20260509205005 | 46 | 165 | 0.0 | 2.0 | 0.00 | 0.00 | 0.00 | 61 | 1013.6 |
| 20260509204505 | 47 | 165 | 1.0 | 2.0 | 0.00 | 0.00 | 0.00 | 60 | 1013.6 |
| 20260509203504 | 47 | 176 | 1.0 | 3.0 | 0.00 | 0.00 | 0.00 | 58 | 1013.6 |
| 20260509203004 | 47 | 178 | 1.0 | 3.0 | 0.00 | 0.00 | 0.00 | 58 | 1013.7 |
| 20260509202504 | 47 | 174 | 1.0 | 3.0 | 0.00 | 0.00 | 0.00 | 57 | 1013.7 |
| 20260509202004 | 47 | 163 | 0.0 | 5.0 | 0.00 | 0.00 | 0.00 | 57 | 1013.8 |
| 20260509201505 | 48 | 170 | 1.0 | 5.0 | 0.00 | 0.00 | 0.00 | 57 | 1013.8 |
| 20260509201004 | 48 | 166 | 1.0 | 5.0 | 0.00 | 0.00 | 0.00 | 56 | 1013.9 |
| 20260509200504 | 48 | 165 | 2.0 | 5.0 | 0.00 | 0.00 | 0.00 | 56 | 1014.0 |
| 20260509200005 | 48 | 173 | 1.0 | 3.0 | 0.00 | 0.00 | 0.00 | 55 | 1014.0 |
| 20260509195504 | 48 | 160 | 1.0 | 3.0 | 0.00 | 0.00 | 0.00 | 55 | 1014.0 |
| 20260509195004 | 48 | 176 | 2.0 | 5.0 | 0.00 | 0.00 | 0.00 | 55 | 1014.1 |
| 20260509194505 | 49 | 167 | 1.0 | 5.0 | 0.00 | 0.00 | 0.00 | 54 | 1014.0 |
| 20260509194004 | 49 | 214 | 1.0 | 3.0 | 0.00 | 0.00 | 0.00 | 54 | 1014.0 |
| 20260509193504 | 49 | 182 | 1.0 | 3.0 | 0.00 | 0.00 | 0.00 | 53 | 1014.0 |
| 20260509193004 | 49 | 174 | 1.0 | 3.0 | 0.00 | 0.00 | 0.00 | 53 | 1014.0 |
| 20260509192504 | 49 | 195 | 2.0 | 3.0 | 0.00 | 0.00 | 0.00 | 52 | 1014.0 |
| 20260509192003 | 50 | 166 | 2.0 | 3.0 | 0.00 | 0.00 | 0.00 | 52 | 1014.1 |
| 20260509191505 | 50 | 175 | 1.0 | 3.0 | 0.00 | 0.00 | 0.00 | 52 | 1014.2 |
| 20260509191004 | 50 | 202 | 1.0 | 2.0 | 0.00 | 0.00 | 0.00 | 52 | 1014.2 |
| 20260509190504 | 51 | 203 | 1.0 | 3.0 | 0.00 | 0.00 | 0.00 | 51 | 1014.3 |
| 20260509190004 | 51 | 203 | 2.0 | 5.0 | 0.00 | 0.00 | 0.00 | 51 | 1014.3 |
| 20260509185504 | 51 | 216 | 1.0 | 6.0 | 0.00 | 0.00 | 0.00 | 51 | 1014.4 |
| 20260509184504 | 52 | 203 | 2.0 | 5.0 | 0.00 | 0.00 | 0.00 | 49 | 1014.6 |
| 20260509184004 | 52 | 242 | 2.0 | 6.0 | 0.00 | 0.00 | 0.00 | 49 | 1014.5 |
| 20260509183504 | 52 | 217 | 3.0 | 6.0 | 0.00 | 0.00 | 0.00 | 48 | 1014.5 |
| 20260509183004 | 52 | 202 | 2.0 | 12.0 | 0.00 | 0.00 | 0.00 | 47 | 1014.3 |
| 20260509182503 | 53 | 216 | 5.0 | 12.0 | 0.00 | 0.00 | 0.00 | 47 | 1014.4 |
| 20260509182004 | 53 | 208 | 3.0 | 7.0 | 0.00 | 0.00 | 0.00 | 46 | 1014.4 |
| 20260509181504 | 53 | 201 | 3.0 | 7.0 | 0.00 | 0.00 | 0.00 | 46 | 1014.4 |
| 20260509181004 | 53 | 202 | 4.0 | 7.0 | 0.00 | 0.00 | 0.00 | 46 | 1014.4 |
| 20260509180504 | 53 | 216 | 2.0 | 7.0 | 0.00 | 0.00 | 0.00 | 46 | 1014.4 |
| 20260509180004 | 54 | 213 | 3.0 | 7.0 | 0.00 | 0.00 | 0.00 | 46 | 1014.4 |
| 20260509175003 | 54 | 210 | 2.0 | 12.0 | 0.00 | 0.00 | 0.00 | 45 | 1014.4 |
| 20260509174505 | 54 | 198 | 3.0 | 12.0 | 0.00 | 0.00 | 0.00 | 44 | 1014.6 |
| 20260509174005 | 54 | 211 | 3.0 | 8.0 | 0.00 | 0.00 | 0.00 | 44 | 1014.6 |
| 20260509173503 | 54 | 222 | 3.0 | 7.0 | 0.00 | 0.00 | 0.00 | 44 | 1014.7 |
| 20260509172503 | 54 | 202 | 1.0 | 6.0 | 0.00 | 0.00 | 0.00 | 43 | 1014.8 |
| 20260509172004 | 55 | 183 | 3.0 | 9.0 | 0.00 | 0.00 | 0.00 | 42 | 1014.8 |
| 20260509171504 | 55 | 232 | 3.0 | 9.0 | 0.00 | 0.00 | 0.00 | 42 | 1014.7 |
| 20260509171003 | 55 | 267 | 1.0 | 8.0 | 0.00 | 0.00 | 0.00 | 41 | 1014.8 |
| 20260509170504 | 55 | 249 | 2.0 | 10.0 | 0.00 | 0.00 | 0.00 | 41 | 1014.8 |
| 20260509170004 | 56 | 256 | 3.0 | 12.0 | 0.00 | 0.00 | 0.00 | 41 | 1014.9 |
| 20260509165004 | 57 | 236 | 3.0 | 7.0 | 0.00 | 0.00 | 0.00 | 41 | 1015.0 |
| 20260509164504 | 57 | 257 | 2.0 | 9.0 | 0.00 | 0.00 | 0.00 | 39 | 1015.1 |
| 20260509164004 | 57 | 204 | 4.0 | 9.0 | 0.00 | 0.00 | 0.00 | 38 | 1015.1 |
| 20260509163504 | 57 | 212 | 3.0 | 8.0 | 0.00 | 0.00 | 0.00 | 39 | 1015.2 |
| 20260509162504 | 57 | 233 | 3.0 | 8.0 | 0.00 | 0.00 | 0.00 | 38 | 1015.3 |
| 20260509162004 | 57 | 356 | 2.0 | 15.0 | 0.00 | 0.00 | 0.00 | 37 | 1015.2 |
| 20260509161504 | 57 | 212 | 5.0 | 15.0 | 0.00 | 0.00 | 0.00 | 36 | 1015.3 |
| 20260509161004 | 58 | 206 | 8.0 | 15.0 | 0.00 | 0.00 | 0.00 | 35 | 1015.4 |
| 20260509160504 | 58 | 204 | 5.0 | 12.0 | 0.00 | 0.00 | 0.00 | 35 | 1015.4 |
| 20260509160004 | 58 | 216 | 3.0 | 12.0 | 0.00 | 0.00 | 0.00 | 36 | 1015.5 |
| 20260509155004 | 59 | 212 | 4.0 | 8.0 | 0.00 | 0.00 | 0.00 | 35 | 1015.4 |
| 20260509154504 | 59 | 208 | 4.0 | 12.0 | 0.00 | 0.00 | 0.00 | 35 | 1015.5 |
| 20260509154004 | 59 | 205 | 5.0 | 12.0 | 0.00 | 0.00 | 0.00 | 35 | 1015.5 |
| 20260509153503 | 59 | 274 | 4.0 | 12.0 | 0.00 | 0.00 | 0.00 | 35 | 1015.6 |
| 20260509153004 | 59 | 215 | 5.0 | 12.0 | 0.00 | 0.00 | 0.00 | 35 | 1015.7 |
| 20260509152504 | 59 | 211 | 4.0 | 12.0 | 0.00 | 0.00 | 0.00 | 35 | 1015.7 |
| 20260509152004 | 59 | 237 | 4.0 | 12.0 | 0.00 | 0.00 | 0.00 | 35 | 1015.7 |
| 20260509151504 | 60 | 245 | 3.0 | 12.0 | 0.00 | 0.00 | 0.00 | 35 | 1015.8 |
| 20260509151005 | 60 | 226 | 5.0 | 12.0 | 0.00 | 0.00 | 0.00 | 36 | 1015.8 |
| 20260509150504 | 60 | 242 | 4.0 | 12.0 | 0.00 | 0.00 | 0.00 | 35 | 1015.8 |
| 20260509150004 | 60 | 274 | 4.0 | 12.0 | 0.00 | 0.00 | 0.00 | 35 | 1015.8 |
| 20260509145504 | 60 | 226 | 7.0 | 12.0 | 0.00 | 0.00 | 0.00 | 34 | 1016.0 |
| 20260509145004 | 60 | 221 | 4.0 | 12.0 | 0.00 | 0.00 | 0.00 | 35 | 1016.0 |
| 20260509144504 | 60 | 209 | 6.0 | 12.0 | 0.00 | 0.00 | 0.00 | 34 | 1016.0 |
| 20260509144005 | 61 | 208 | 6.0 | 12.0 | 0.00 | 0.00 | 0.00 | 33 | 1016.0 |
| 20260509143504 | 61 | 223 | 4.0 | 14.0 | 0.00 | 0.00 | 0.00 | 33 | 1015.9 |
| 20260509143004 | 61 | 213 | 5.0 | 14.0 | 0.00 | 0.00 | 0.00 | 33 | 1016.1 |
| 20260509142504 | 61 | 218 | 5.0 | 12.0 | 0.00 | 0.00 | 0.00 | 34 | 1016.1 |
| 20260509142004 | 61 | 205 | 4.0 | 14.0 | 0.00 | 0.00 | 0.00 | 33 | 1016.2 |
| 20260509141504 | 62 | 221 | 7.0 | 14.0 | 0.00 | 0.00 | 0.00 | 32 | 1016.2 |
| 20260509141004 | 62 | 195 | 6.0 | 14.0 | 0.00 | 0.00 | 0.00 | 33 | 1016.2 |
| 20260509140504 | 62 | 226 | 4.0 | 13.0 | 0.00 | 0.00 | 0.00 | 33 | 1016.3 |
| 20260509140005 | 62 | 242 | 5.0 | 13.0 | 0.00 | 0.00 | 0.00 | 34 | 1016.3 |
| 20260509135505 | 62 | 203 | 5.0 | 12.0 | 0.00 | 0.00 | 0.00 | 35 | 1016.3 |
| 20260509135003 | 62 | 203 | 2.0 | 9.0 | 0.00 | 0.00 | 0.00 | 35 | 1016.4 |
| 20260509134504 | 62 | 228 | 3.0 | 9.0 | 0.00 | 0.00 | 0.00 | 35 | 1016.4 |
| 20260509134005 | 61 | 210 | 4.0 | 9.0 | 0.00 | 0.00 | 0.00 | 34 | 1016.3 |
| 20260509133504 | 62 | 238 | 5.0 | 12.0 | 0.00 | 0.00 | 0.00 | 35 | 1016.3 |
| 20260509133004 | 62 | 245 | 3.0 | 12.0 | 0.00 | 0.00 | 0.00 | 35 | 1016.4 |
| 20260509132503 | 62 | 259 | 5.0 | 13.0 | 0.00 | 0.00 | 0.00 | 35 | 1016.5 |
| 20260509132004 | 62 | 230 | 3.0 | 13.0 | 0.00 | 0.00 | 0.00 | 37 | 1016.6 |
| 20260509131504 | 62 | 197 | 7.0 | 14.0 | 0.00 | 0.00 | 0.00 | 37 | 1016.7 |
| 20260509131004 | 62 | 207 | 6.0 | 14.0 | 0.00 | 0.00 | 0.00 | 37 | 1016.7 |
| 20260509130504 | 62 | 207 | 6.0 | 14.0 | 0.00 | 0.00 | 0.00 | 38 | 1016.7 |
| 20260509130004 | 62 | 199 | 6.0 | 13.0 | 0.00 | 0.00 | 0.00 | 37 | 1016.6 |
| 20260509125504 | 62 | 202 | 6.0 | 15.0 | 0.00 | 0.00 | 0.00 | 38 | 1016.8 |
| 20260509125004 | 62 | 200 | 5.0 | 15.0 | 0.00 | 0.00 | 0.00 | 39 | 1016.7 |
| 20260509124504 | 62 | 204 | 5.0 | 13.0 | 0.00 | 0.00 | 0.00 | 39 | 1016.7 |
| 20260509123503 | 62 | 197 | 8.0 | 13.0 | 0.00 | 0.00 | 0.00 | 38 | 1017.0 |
| 20260509123004 | 62 | 179 | 5.0 | 12.0 | 0.00 | 0.00 | 0.00 | 39 | 1016.9 |
| 20260509122004 | 62 | 198 | 6.0 | 15.0 | 0.00 | 0.00 | 0.00 | 40 | 1017.0 |
| 20260509121004 | 62 | 197 | 7.0 | 14.0 | 0.00 | 0.00 | 0.00 | 37 | 1017.1 |
| 20260509120504 | 62 | 191 | 5.0 | 15.0 | 0.00 | 0.00 | 0.00 | 38 | 1017.1 |
| 20260509120003 | 62 | 218 | 5.0 | 15.0 | 0.00 | 0.00 | 0.00 | 36 | 1017.2 |
| 20260509115504 | 63 | 172 | 7.0 | 14.0 | 0.00 | 0.00 | 0.00 | 36 | 1017.1 |
| 20260509115003 | 63 | 200 | 5.0 | 15.0 | 0.00 | 0.00 | 0.00 | 37 | 1017.2 |
| 20260509114005 | 62 | 212 | 4.0 | 12.0 | 0.00 | 0.00 | 0.00 | 37 | 1017.1 |
| 20260509113504 | 62 | 179 | 7.0 | 13.0 | 0.00 | 0.00 | 0.00 | 37 | 1017.4 |
| 20260509113004 | 62 | 195 | 7.0 | 13.0 | 0.00 | 0.00 | 0.00 | 37 | 1017.3 |
| 20260509112004 | 62 | 177 | 6.0 | 13.0 | 0.00 | 0.00 | 0.00 | 37 | 1017.3 |
| 20260509111503 | 62 | 213 | 4.0 | 13.0 | 0.00 | 0.00 | 0.00 | 39 | 1017.4 |
| 20260509111005 | 63 | 181 | 6.0 | 13.0 | 0.00 | 0.00 | 0.00 | 38 | 1017.4 |
| 20260509110504 | 63 | 194 | 6.0 | 13.0 | 0.00 | 0.00 | 0.00 | 39 | 1017.5 |
| 20260509110004 | 63 | 197 | 9.0 | 13.0 | 0.00 | 0.00 | 0.00 | 37 | 1017.5 |
| 20260509105003 | 62 | 199 | 2.0 | 12.0 | 0.00 | 0.00 | 0.00 | 39 | 1017.6 |
| 20260509104504 | 61 | 219 | 5.0 | 12.0 | 0.00 | 0.00 | 0.00 | 41 | 1017.7 |
| 20260509104004 | 61 | 204 | 7.0 | 12.0 | 0.00 | 0.00 | 0.00 | 40 | 1017.8 |
| 20260509103503 | 61 | 210 | 5.0 | 14.0 | 0.00 | 0.00 | 0.00 | 42 | 1017.8 |
| 20260509103004 | 61 | 223 | 7.0 | 14.0 | 0.00 | 0.00 | 0.00 | 41 | 1017.8 |
| 20260509102504 | 61 | 203 | 6.0 | 12.0 | 0.00 | 0.00 | 0.00 | 43 | 1017.8 |
| 20260509102006 | 61 | 208 | 4.0 | 13.0 | 0.00 | 0.00 | 0.00 | 43 | 1017.8 |
| 20260509101006 | 61 | 187 | 5.0 | 12.0 | 0.00 | 0.00 | 0.00 | 43 | 1017.8 |
| 20260509100505 | 61 | 197 | 5.0 | 10.0 | 0.00 | 0.00 | 0.00 | 41 | 1017.8 |
| 20260509100006 | 61 | 191 | 6.0 | 12.0 | 0.00 | 0.00 | 0.00 | 43 | 1017.9 |
| 20260509095506 | 61 | 200 | 6.0 | 12.0 | 0.00 | 0.00 | 0.00 | 43 | 1018.0 |
| 20260509095005 | 61 | 177 | 5.0 | 12.0 | 0.00 | 0.00 | 0.00 | 45 | 1018.0 |
| 20260509094505 | 61 | 196 | 6.0 | 12.0 | 0.00 | 0.00 | 0.00 | 44 | 1018.0 |
| 20260509093005 | 61 | 250 | 3.0 | 9.0 | 0.00 | 0.00 | 0.00 | 48 | 1018.1 |
| 20260509092505 | 60 | 207 | 3.0 | 9.0 | 0.00 | 0.00 | 0.00 | 48 | 1018.1 |
| 20260509092005 | 60 | 239 | 2.0 | 9.0 | 0.00 | 0.00 | 0.00 | 48 | 1018.2 |
| 20260509091505 | 60 | 229 | 3.0 | 9.0 | 0.00 | 0.00 | 0.00 | 48 | 1018.3 |
| 20260509091006 | 60 | 181 | 4.0 | 9.0 | 0.00 | 0.00 | 0.00 | 48 | 1018.3 |
| 20260509090005 | 60 | 234 | 2.0 | 9.0 | 0.00 | 0.00 | 0.00 | 49 | 1018.3 |
| 20260509085505 | 60 | 225 | 5.0 | 12.0 | 0.00 | 0.00 | 0.00 | 49 | 1018.3 |
| 20260509085005 | 59 | 225 | 5.0 | 12.0 | 0.00 | 0.00 | 0.00 | 50 | 1018.3 |
| 20260509084005 | 59 | 213 | 5.0 | 10.0 | 0.00 | 0.00 | 0.00 | 51 | 1018.4 |
| 20260509083505 | 59 | 203 | 5.0 | 10.0 | 0.00 | 0.00 | 0.00 | 52 | 1018.3 |
| 20260509083005 | 59 | 221 | 2.0 | 10.0 | 0.00 | 0.00 | 0.00 | 55 | 1018.3 |
| 20260509082505 | 59 | 221 | 5.0 | 10.0 | 0.00 | 0.00 | 0.00 | 55 | 1018.3 |
| 20260509082005 | 59 | 165 | 3.0 | 8.0 | 0.00 | 0.00 | 0.00 | 56 | 1018.4 |
| 20260509081505 | 59 | 191 | 5.0 | 8.0 | 0.00 | 0.00 | 0.00 | 56 | 1018.4 |
| 20260509080505 | 58 | 192 | 3.0 | 7.0 | 0.00 | 0.00 | 0.00 | 60 | 1018.4 |
| 20260509075505 | 57 | 192 | 3.0 | 8.0 | 0.00 | 0.00 | 0.00 | 61 | 1018.4 |
| 20260509075005 | 57 | 203 | 3.0 | 7.0 | 0.00 | 0.00 | 0.00 | 62 | 1018.4 |
| 20260509074505 | 57 | 193 | 3.0 | 7.0 | 0.00 | 0.00 | 0.00 | 62 | 1018.4 |
| 20260509074007 | 57 | 182 | 5.0 | 7.0 | 0.00 | 0.00 | 0.00 | 63 | 1018.4 |
| 20260509073505 | 56 | 220 | 3.0 | 6.0 | 0.00 | 0.00 | 0.00 | 64 | 1018.5 |